﻿_id,recvTime,fiwareServicePath,entityType,entityId,LAeq,LAeq_d,LAeq_den,LAeq_e,LAeq_n,dateObserved
1,2020-11-26 10:57:52.535,/sonometros,NoiseLevelObserved,T251234-daily,55,56.7,57.5,55.4,47.7,2020-11-25
2,2020-11-27T00:00:53.274Z,/sonometros,NoiseLevelObserved,T251234-daily,55.6,57.1,58.5,56.9,49.2,2020-11-26
3,2020-11-28T00:00:55.212Z,/sonometros,NoiseLevelObserved,T251234-daily,66.3,68.5,66.8,58.9,51.3,2020-11-27
4,2020-11-29T00:00:55.930Z,/sonometros,NoiseLevelObserved,T251234-daily,64.5,64.6,67.9,70.7,56.3,2020-11-28
5,2020-11-30T00:00:58.670Z,/sonometros,NoiseLevelObserved,T251234-daily,57.3,58.8,59.6,59.2,48.7,2020-11-29
6,2020-12-01T00:01:25.812Z,/sonometros,NoiseLevelObserved,T251234-daily,60.3,62.4,61.1,53.2,48.4,2020-11-30
7,2020-12-02T00:00:00.557Z,/sonometros,NoiseLevelObserved,T251234-daily,56.3,57.3,59.1,60.4,48.1,2020-12-01
8,2020-12-03T00:00:19.752Z,/sonometros,NoiseLevelObserved,T251234-daily,59.4,61.2,61.2,59.3,49.8,2020-12-02
9,2020-12-04T00:00:08.632Z,/sonometros,NoiseLevelObserved,T251234-daily,58.0,59.8,59.8,57.2,48.9,2020-12-03
10,2020-12-05T00:00:07.581Z,/sonometros,NoiseLevelObserved,T251234-daily,59.9,59.6,64.4,65.8,55.6,2020-12-04
11,2020-12-06T00:00:07.487Z,/sonometros,NoiseLevelObserved,T251234-daily,61.3,62.9,63.3,62.7,51.9,2020-12-05
12,2020-12-07T00:00:07.901Z,/sonometros,NoiseLevelObserved,T251234-daily,55.4,56.8,58.6,56.7,49.8,2020-12-06
13,2020-12-08T00:00:10.632Z,/sonometros,NoiseLevelObserved,T251234-daily,60.3,61.9,62.7,61.3,52.5,2020-12-07
14,2020-12-09T00:02:12.490Z,/sonometros,NoiseLevelObserved,T251234-daily,58.7,60.4,60.3,59.8,47.6,2020-12-08
15,2020-12-10T00:01:13.629Z,/sonometros,NoiseLevelObserved,T251234-daily,55.4,57.1,57.7,56.3,47.1,2020-12-09
16,2020-12-11T00:00:14.371Z,/sonometros,NoiseLevelObserved,T251234-daily,55.7,57.2,58.5,56.6,49.2,2020-12-10
17,2020-12-12T00:00:56.471Z,/sonometros,NoiseLevelObserved,T251234-daily,59.9,60.1,64.1,64.8,55.4,2020-12-11
18,2020-12-13T00:00:58.410Z,/sonometros,NoiseLevelObserved,T251234-daily,64.4,65.4,67.2,68.5,56.0,2020-12-12
19,2020-12-14T00:00:59.605Z,/sonometros,NoiseLevelObserved,T251234-daily,57.7,59.5,59.9,57.1,50.0,2020-12-13
20,2020-12-15T00:00:01.777Z,/sonometros,NoiseLevelObserved,T251234-daily,57.6,59.5,59.2,56.4,47.9,2020-12-14
21,2020-12-16T00:00:02.668Z,/sonometros,NoiseLevelObserved,T251234-daily,56.1,57.2,59.1,59.7,48.8,2020-12-15
22,2020-12-17T00:00:04.462Z,/sonometros,NoiseLevelObserved,T251234-daily,55.2,56.6,58.4,55.4,50.1,2020-12-16
23,2020-12-18T00:00:06.417Z,/sonometros,NoiseLevelObserved,T251234-daily,59.7,61.6,61.2,58.4,49.6,2020-12-17
24,2020-12-19T00:00:08.601Z,/sonometros,NoiseLevelObserved,T251234-daily,59.7,60.4,63.1,64.0,53.4,2020-12-18
25,2020-12-20T00:00:12.696Z,/sonometros,NoiseLevelObserved,T251234-daily,63.5,64.3,66.9,67.9,57.1,2020-12-19
26,2020-12-21T00:00:11.668Z,/sonometros,NoiseLevelObserved,T251234-daily,60.0,60.9,63.2,64.2,53.0,2020-12-20
27,2020-12-22T00:00:12.7Z,/sonometros,NoiseLevelObserved,T251234-daily,57.8,59.5,59.6,58.4,48.0,2020-12-21
28,2020-12-23T00:00:13.276Z,/sonometros,NoiseLevelObserved,T251234-daily,58.0,59.4,60.1,61.1,47.1,2020-12-22
29,2020-12-24T00:00:15.299Z,/sonometros,NoiseLevelObserved,T251234-daily,59.2,60.3,61.4,63.5,47.0,2020-12-23
30,2020-12-25T00:00:16.611Z,/sonometros,NoiseLevelObserved,T251234-daily,60.1,62.3,60.9,51.1,47.9,2020-12-24
31,2020-12-26T00:00:19.79Z,/sonometros,NoiseLevelObserved,T251234-daily,58.5,59.5,60.9,63.3,46.2,2020-12-25
32,2020-12-27T00:00:19.424Z,/sonometros,NoiseLevelObserved,T251234-daily,62.2,62.9,64.5,67.7,46.0,2020-12-26
33,2020-12-28T00:00:21.145Z,/sonometros,NoiseLevelObserved,T251234-daily,57.3,58.0,59.8,62.7,44.1,2020-12-27
34,2020-12-29T00:00:51.139Z,/sonometros,NoiseLevelObserved,T251234-daily,57.5,59.6,59.3,57.8,47.1,2020-12-28
35,2020-12-30T00:00:51.950Z,/sonometros,NoiseLevelObserved,T251234-daily,59.3,59.2,65.8,57.9,59.7,2020-12-29
36,2020-12-31T00:00:53.288Z,/sonometros,NoiseLevelObserved,T251234-daily,57.5,59.1,59.6,58.6,48.6,2020-12-30
37,2021-01-01T00:00:54.651Z,/sonometros,NoiseLevelObserved,T251234-daily,63.3,64.5,65.6,67.2,52.8,2020-12-31
38,2021-01-02T00:00:56.28Z,/sonometros,NoiseLevelObserved,T251234-daily,55.0,54.5,61.1,57.9,54.6,2021-01-01
39,2021-01-03T00:00:57.933Z,/sonometros,NoiseLevelObserved,T251234-daily,59.2,61.0,60.4,60.0,44.5,2021-01-02
40,2021-01-04T00:00:59.810Z,/sonometros,NoiseLevelObserved,T251234-daily,58.1,60.1,59.0,56.8,43.5,2021-01-03
41,2021-01-05T00:00:00.757Z,/sonometros,NoiseLevelObserved,T251234-daily,57.4,59.2,58.7,57.4,45.4,2021-01-04
42,2021-01-06T00:00:01.802Z,/sonometros,NoiseLevelObserved,T251234-daily,56.0,57.3,58.1,59.0,45.9,2021-01-05
43,2021-01-07T00:00:02.259Z,/sonometros,NoiseLevelObserved,T251234-daily,55.5,57.0,57.6,57.9,45.5,2021-01-06
44,2021-01-08T00:00:07.884Z,/sonometros,NoiseLevelObserved,T251234-daily,54.4,56.3,56.5,52.3,46.6,2021-01-07
45,2021-01-09T00:00:05.339Z,/sonometros,NoiseLevelObserved,T251234-daily,55.3,57.3,57.0,53.1,46.0,2021-01-08
46,2021-01-10T00:02:06.491Z,/sonometros,NoiseLevelObserved,T251234-daily,55.5,57.5,57.2,52.7,46.5,2021-01-09
47,2021-01-11T00:00:07.235Z,/sonometros,NoiseLevelObserved,T251234-daily,56.4,58.6,57.2,50.9,43.1,2021-01-10
48,2021-01-12T00:00:09.928Z,/sonometros,NoiseLevelObserved,T251234-daily,56.7,58.8,57.6,50.6,44.8,2021-01-11
49,2021-01-13T00:00:11.617Z,/sonometros,NoiseLevelObserved,T251234-daily,61.4,63.7,61.8,53.1,44.7,2021-01-12
50,2021-01-14T00:00:11.714Z,/sonometros,NoiseLevelObserved,T251234-daily,56.6,58.8,57.6,50.0,45.2,2021-01-13
51,2021-01-15T00:00:20.337Z,/sonometros,NoiseLevelObserved,T251234-daily,55.2,57.2,56.7,52.7,45.3,2021-01-14
52,2021-01-16T00:00:15.634Z,/sonometros,NoiseLevelObserved,T251234-daily,58.2,60.4,59.0,51.0,45.3,2021-01-15
53,2021-01-17T00:00:16.746Z,/sonometros,NoiseLevelObserved,T251234-daily,59.5,61.6,60.1,56.5,42.9,2021-01-16
54,2021-01-18T00:00:17.630Z,/sonometros,NoiseLevelObserved,T251234-daily,52.9,54.9,53.7,50.5,39.0,2021-01-17
55,2021-01-19T00:00:18.933Z,/sonometros,NoiseLevelObserved,T251234-daily,58.7,60.9,59.3,53.4,43.8,2021-01-18
56,2021-01-20T00:00:20.495Z,/sonometros,NoiseLevelObserved,T251234-daily,59.3,61.5,59.8,52.7,44.4,2021-01-19
57,2021-01-21T00:00:21.296Z,/sonometros,NoiseLevelObserved,T251234-daily,58.3,60.5,58.8,51.3,43.3,2021-01-20
58,2021-01-22T00:00:23.189Z,/sonometros,NoiseLevelObserved,T251234-daily,57.6,59.8,58.2,49.7,43.6,2021-01-21
59,2021-01-23T00:00:24.377Z,/sonometros,NoiseLevelObserved,T251234-daily,55.3,57.3,56.3,54.8,39.7,2021-01-22
60,2021-01-24T00:00:26.373Z,/sonometros,NoiseLevelObserved,T251234-daily,56.3,58.4,57.0,50.3,43.4,2021-01-23
61,2021-01-25T00:00:28.604Z,/sonometros,NoiseLevelObserved,T251234-daily,53.4,54.9,56.8,50.9,49.0,2021-01-24
62,2021-01-26T00:01:29.432Z,/sonometros,NoiseLevelObserved,T251234-daily,60.3,62.6,60.7,50.5,43.7,2021-01-25
63,2021-01-27T00:00:31.556Z,/sonometros,NoiseLevelObserved,T251234-daily,56.6,58.7,57.3,50.9,43.4,2021-01-26
64,2021-01-28T00:00:32.520Z,/sonometros,NoiseLevelObserved,T251234-daily,57.1,59.3,57.8,48.4,44.3,2021-01-27
65,2021-01-29T00:00:33.954Z,/sonometros,NoiseLevelObserved,T251234-daily,54.9,56.9,55.9,51.2,43.3,2021-01-28
66,2021-01-30T00:00:35.926Z,/sonometros,NoiseLevelObserved,T251234-daily,54.4,56.4,55.8,52.3,44.0,2021-01-29
67,2021-01-31T00:00:37.607Z,/sonometros,NoiseLevelObserved,T251234-daily,53.4,55.4,54.8,50.5,43.2,2021-01-30
68,2021-02-01T00:00:39.978Z,/sonometros,NoiseLevelObserved,T251234-daily,55.1,57.1,56.1,53.1,42.2,2021-01-31
69,2021-02-02T00:01:41.113Z,/sonometros,NoiseLevelObserved,T251234-daily,57.9,59.8,59.4,57.1,47.4,2021-02-01
70,2021-02-03T00:00:43.62Z,/sonometros,NoiseLevelObserved,T251234-daily,54.4,56.6,55.5,49.2,43.1,2021-02-02
71,2021-02-04T00:00:44.619Z,/sonometros,NoiseLevelObserved,T251234-daily,55.1,57.3,56.1,49.7,43.0,2021-02-03
72,2021-02-05T00:00:46.95Z,/sonometros,NoiseLevelObserved,T251234-daily,55.0,56.8,56.6,55.2,44.2,2021-02-04
73,2021-02-06T00:00:46.877Z,/sonometros,NoiseLevelObserved,T251234-daily,55.2,57.3,56.4,50.7,44.4,2021-02-05
74,2021-02-07T00:00:49.558Z,/sonometros,NoiseLevelObserved,T251234-daily,53.9,55.8,55.3,52.6,43.2,2021-02-06
75,2021-02-08T00:12:34.675Z,/sonometros,NoiseLevelObserved,T251234-daily,55.6,57.8,56.4,50.6,42.4,2021-02-07
76,2021-02-09T00:00:51.685Z,/sonometros,NoiseLevelObserved,T251234-daily,56.5,58.5,58.1,54.0,47.0,2021-02-08
77,2021-02-10T00:00:53.802Z,/sonometros,NoiseLevelObserved,T251234-daily,54.1,55.9,55.9,55.0,43.7,2021-02-09
78,2021-02-11T00:00:55.554Z,/sonometros,NoiseLevelObserved,T251234-daily,54.8,56.6,56.5,55.5,44.2,2021-02-10
79,2021-02-12T00:01:56.651Z,/sonometros,NoiseLevelObserved,T251234-daily,54.5,56.6,55.9,52.0,43.8,2021-02-11
80,2021-02-13T00:00:58.896Z,/sonometros,NoiseLevelObserved,T251234-daily,54.4,56.3,56.1,51.6,45.6,2021-02-12
81,2021-02-14T00:00:41.39Z,/sonometros,NoiseLevelObserved,T251234-daily,53.4,55.2,55.3,53.6,44.1,2021-02-13
82,2021-02-15T00:00:12.140Z,/sonometros,NoiseLevelObserved,T251234-daily,53.8,55.4,57.5,49.8,50.0,2021-02-14
83,2021-02-16T00:00:19.453Z,/sonometros,NoiseLevelObserved,T251234-daily,60.3,62.5,61.2,49.7,48.8,2021-02-15
84,2021-02-17T00:00:37.151Z,/sonometros,NoiseLevelObserved,T251234-daily,53.7,55.7,55.2,50.4,44.1,2021-02-16
85,2021-02-18T00:00:20.864Z,/sonometros,NoiseLevelObserved,T251234-daily,55.5,57.5,57.2,50.3,46.9,2021-02-17
86,2021-02-19T00:00:15.436Z,/sonometros,NoiseLevelObserved,T251234-daily,55.5,57.6,56.8,50.8,45.2,2021-02-18
87,2021-02-20T00:00:16.863Z,/sonometros,NoiseLevelObserved,T251234-daily,54.9,56.9,56.5,53.2,45.2,2021-02-19
88,2021-02-21T00:00:14.947Z,/sonometros,NoiseLevelObserved,T251234-daily,55.1,57.0,56.4,52.8,44.4,2021-02-20
89,2021-02-22T00:00:23.489Z,/sonometros,NoiseLevelObserved,T251234-daily,54.1,56.2,55.2,50.0,42.5,2021-02-21
90,2021-02-23T00:00:17.570Z,/sonometros,NoiseLevelObserved,T251234-daily,57.2,59.2,59.2,49.2,50.0,2021-02-22
91,2021-02-24T00:00:20.241Z,/sonometros,NoiseLevelObserved,T251234-daily,56.9,56.0,60.3,64.6,44.2,2021-02-23
92,2021-02-25T00:00:18.525Z,/sonometros,NoiseLevelObserved,T251234-daily,54.1,56.1,55.6,52.1,43.9,2021-02-24
93,2021-02-26T00:00:20.100Z,/sonometros,NoiseLevelObserved,T251234-daily,55.2,57.1,56.7,54.8,44.4,2021-02-25
94,2021-02-27T00:00:20.783Z,/sonometros,NoiseLevelObserved,T251234-daily,55.9,57.9,57.2,53.9,44.6,2021-02-26
95,2021-02-28T00:00:22.567Z,/sonometros,NoiseLevelObserved,T251234-daily,53.9,55.7,55.8,53.3,44.9,2021-02-27
96,2021-03-01T00:00:23.963Z,/sonometros,NoiseLevelObserved,T251234-daily,55.4,57.5,56.3,51.9,42.5,2021-02-28
97,2021-03-02T00:00:25.830Z,/sonometros,NoiseLevelObserved,T251234-daily,56.7,58.9,57.5,49.6,43.9,2021-03-01
98,2021-03-03T00:00:27.512Z,/sonometros,NoiseLevelObserved,T251234-daily,55.2,57.3,56.4,49.9,44.8,2021-03-02
99,2021-03-04T00:00:29.818Z,/sonometros,NoiseLevelObserved,T251234-daily,58.8,61.1,59.4,51.6,43.8,2021-03-03
100,2021-03-05T00:00:29.390Z,/sonometros,NoiseLevelObserved,T251234-daily,59.0,61.1,60.2,51.9,48.8,2021-03-04
101,2021-03-06T00:00:32.820Z,/sonometros,NoiseLevelObserved,T251234-daily,60.2,62.1,62.2,57.6,52.4,2021-03-05
102,2021-03-07T00:00:32.771Z,/sonometros,NoiseLevelObserved,T251234-daily,62.7,65.0,63.0,55.0,44.0,2021-03-06
103,2021-03-08T00:00:34.665Z,/sonometros,NoiseLevelObserved,T251234-daily,58.0,60.2,58.8,50.3,45.3,2021-03-07
104,2021-03-09T00:00:37.144Z,/sonometros,NoiseLevelObserved,T251234-daily,58.0,60.1,58.8,51.3,45.9,2021-03-08
105,2021-03-10T00:00:38.473Z,/sonometros,NoiseLevelObserved,T251234-daily,56.2,58.3,57.2,51.4,44.7,2021-03-09
106,2021-03-11T00:00:38.820Z,/sonometros,NoiseLevelObserved,T251234-daily,56.5,58.3,58.7,54.7,49.1,2021-03-10
107,2021-03-12T00:00:40.804Z,/sonometros,NoiseLevelObserved,T251234-daily,58.0,60.0,59.2,53.6,47.5,2021-03-11
108,2021-03-13T00:00:42.643Z,/sonometros,NoiseLevelObserved,T251234-daily,59.0,61.1,59.8,55.3,45.1,2021-03-12
109,2021-03-14T00:00:44.689Z,/sonometros,NoiseLevelObserved,T251234-daily,63.0,65.3,63.3,54.0,44.5,2021-03-13
110,2021-03-15T00:00:45.576Z,/sonometros,NoiseLevelObserved,T251234-daily,55.4,57.5,56.3,52.5,41.9,2021-03-14
111,2021-03-16T00:00:48.318Z,/sonometros,NoiseLevelObserved,T251234-daily,60.6,62.9,61.0,52.7,44.0,2021-03-15
112,2021-03-17T00:00:49.891Z,/sonometros,NoiseLevelObserved,T251234-daily,60.0,62.3,60.6,53.4,44.3,2021-03-16
113,2021-03-18T00:00:50.965Z,/sonometros,NoiseLevelObserved,T251234-daily,60.5,62.7,60.9,51.2,44.9,2021-03-17
114,2021-03-19T00:00:53.240Z,/sonometros,NoiseLevelObserved,T251234-daily,61.4,63.7,61.7,50.2,44.1,2021-03-18
115,2021-03-20T00:00:53.451Z,/sonometros,NoiseLevelObserved,T251234-daily,58.3,60.5,58.9,50.1,44.8,2021-03-19
116,2021-03-21T00:00:55.973Z,/sonometros,NoiseLevelObserved,T251234-daily,58.1,60.3,58.7,53.3,43.1,2021-03-20
117,2021-03-22T00:00:56.89Z,/sonometros,NoiseLevelObserved,T251234-daily,56.2,58.2,57.2,54.6,43.1,2021-03-21
118,2021-03-23T00:00:58.27Z,/sonometros,NoiseLevelObserved,T251234-daily,56.2,58.3,57.2,51.5,44.5,2021-03-22
119,2021-03-24T00:00:03.977Z,/sonometros,NoiseLevelObserved,T251234-daily,57.5,59.7,58.3,51.8,44.5,2021-03-23
120,2021-03-25T00:00:03.308Z,/sonometros,NoiseLevelObserved,T251234-daily,57.4,59.5,58.4,54.3,44.6,2021-03-24
121,2021-03-26T00:00:10.236Z,/sonometros,NoiseLevelObserved,T251234-daily,55.8,57.9,56.9,51.3,44.6,2021-03-25
122,2021-03-27T00:00:05.135Z,/sonometros,NoiseLevelObserved,T251234-daily,58.1,60.2,59.1,54.9,45.6,2021-03-26
123,2021-03-28T00:00:07.112Z,/sonometros,NoiseLevelObserved,T251234-daily,59.2,61.3,59.9,55.5,44.3,2021-03-27
124,2021-03-29T00:00:08.257Z,/sonometros,NoiseLevelObserved,T251234-daily,57.4,58.8,59.1,58.9,46.4,2021-03-28
125,2021-03-30T00:00:12.717Z,/sonometros,NoiseLevelObserved,T251234-daily,56.9,59.1,57.9,53.0,44.4,2021-03-29
126,2021-03-31T00:00:11.926Z,/sonometros,NoiseLevelObserved,T251234-daily,57.3,58.9,58.9,59.1,45.1,2021-03-30
127,2021-04-01T00:00:15.798Z,/sonometros,NoiseLevelObserved,T251234-daily,57.0,59.0,58.1,55.2,44.8,2021-03-31
128,2021-04-02T00:00:07.478Z,/sonometros,NoiseLevelObserved,T251234-daily,56.1,58.1,57.3,52.3,45.2,2021-04-01
129,2021-04-03T00:00:14.203Z,/sonometros,NoiseLevelObserved,T251234-daily,57.1,59.3,58.0,52.9,43.9,2021-04-02
130,2021-04-04T00:00:16.679Z,/sonometros,NoiseLevelObserved,T251234-daily,58.9,61.1,59.4,52.0,44.1,2021-04-03
131,2021-04-05T00:00:11.538Z,/sonometros,NoiseLevelObserved,T251234-daily,55.4,57.5,56.6,52.3,44.0,2021-04-04
132,2021-04-06T00:00:16.700Z,/sonometros,NoiseLevelObserved,T251234-daily,54.9,57.0,56.1,51.6,43.8,2021-04-05
133,2021-04-07T00:00:19.247Z,/sonometros,NoiseLevelObserved,T251234-daily,56.5,58.6,57.6,52.8,44.6,2021-04-06
134,2021-04-08T00:00:16.907Z,/sonometros,NoiseLevelObserved,T251234-daily,55.7,57.8,56.9,52.6,44.2,2021-04-07
135,2021-04-09T00:00:18.414Z,/sonometros,NoiseLevelObserved,T251234-daily,55.1,57.1,56.3,52.6,43.9,2021-04-08
136,2021-04-10T00:00:20.442Z,/sonometros,NoiseLevelObserved,T251234-daily,55.0,57.0,56.5,51.9,45.5,2021-04-09
137,2021-04-11T00:00:21.984Z,/sonometros,NoiseLevelObserved,T251234-daily,59.8,62.0,60.3,52.2,44.7,2021-04-10
138,2021-04-12T00:00:22.904Z,/sonometros,NoiseLevelObserved,T251234-daily,55.2,57.3,56.6,51.9,44.8,2021-04-11
139,2021-04-13T00:00:24.524Z,/sonometros,NoiseLevelObserved,T251234-daily,54.7,56.6,56.3,52.9,45.1,2021-04-12
140,2021-04-14T00:00:24.604Z,/sonometros,NoiseLevelObserved,T251234-daily,53.7,55.6,55.7,52.4,45.5,2021-04-13
141,2021-04-15T00:00:26.725Z,/sonometros,NoiseLevelObserved,T251234-daily,54.9,56.9,56.2,53.4,43.5,2021-04-14
142,2021-04-16T00:00:29.251Z,/sonometros,NoiseLevelObserved,T251234-daily,55.0,57.0,56.1,51.7,43.7,2021-04-15
143,2021-04-17T00:00:29.846Z,/sonometros,NoiseLevelObserved,T251234-daily,55.6,57.5,57.1,54.2,45.5,2021-04-16
144,2021-04-18T00:00:32.556Z,/sonometros,NoiseLevelObserved,T251234-daily,57.4,59.5,58.3,53.1,45.0,2021-04-17
145,2021-04-19T00:00:33.299Z,/sonometros,NoiseLevelObserved,T251234-daily,56.0,58.1,56.6,52.6,39.6,2021-04-18
146,2021-04-20T00:00:34.722Z,/sonometros,NoiseLevelObserved,T251234-daily,55.8,57.9,56.8,51.0,44.3,2021-04-19
147,2021-04-21T00:00:36.479Z,/sonometros,NoiseLevelObserved,T251234-daily,55.4,57.0,58.9,50.8,51.4,2021-04-20
148,2021-04-22T00:00:38.83Z,/sonometros,NoiseLevelObserved,T251234-daily,56.0,58.0,57.8,52.1,47.7,2021-04-21
149,2021-04-23T00:00:39.859Z,/sonometros,NoiseLevelObserved,T251234-daily,56.2,58.1,58.4,53.3,48.9,2021-04-22
150,2021-04-24T00:00:41.785Z,/sonometros,NoiseLevelObserved,T251234-daily,58.1,60.3,58.9,54.3,43.6,2021-04-23
151,2021-04-25T00:00:43.104Z,/sonometros,NoiseLevelObserved,T251234-daily,59.8,61.9,60.5,57.2,44.1,2021-04-24
152,2021-04-26T00:00:45.718Z,/sonometros,NoiseLevelObserved,T251234-daily,58.2,60.3,58.8,53.1,44.2,2021-04-25
153,2021-04-27T00:00:48.539Z,/sonometros,NoiseLevelObserved,T251234-daily,61.0,62.9,63.2,57.4,53.8,2021-04-26
154,2021-04-28T00:00:49.845Z,/sonometros,NoiseLevelObserved,T251234-daily,57.1,58.9,58.2,57.5,42.7,2021-04-27
155,2021-04-29T00:00:50.301Z,/sonometros,NoiseLevelObserved,T251234-daily,56.3,58.0,58.3,56.3,47.7,2021-04-28
156,2021-04-30T00:00:51.995Z,/sonometros,NoiseLevelObserved,T251234-daily,58.0,59.0,60.3,62.6,45.8,2021-04-29
157,2021-05-01T00:00:53.692Z,/sonometros,NoiseLevelObserved,T251234-daily,59.3,60.9,61.1,61.6,47.8,2021-04-30
158,2021-05-02T00:00:56.187Z,/sonometros,NoiseLevelObserved,T251234-daily,64.8,66.8,65.7,64.6,46.0,2021-05-01
159,2021-05-03T00:00:57.961Z,/sonometros,NoiseLevelObserved,T251234-daily,58.1,59.8,59.5,60.0,43.4,2021-05-02
160,2021-05-04T00:00:59.784Z,/sonometros,NoiseLevelObserved,T251234-daily,58.7,60.9,59.5,54.5,44.8,2021-05-03
161,2021-05-05T00:00:03.141Z,/sonometros,NoiseLevelObserved,T251234-daily,57.8,59.2,59.7,60.8,45.8,2021-05-04
162,2021-05-06T00:00:04.907Z,/sonometros,NoiseLevelObserved,T251234-daily,58.6,60.2,60.4,60.8,46.8,2021-05-05
163,2021-05-07T00:00:06.550Z,/sonometros,NoiseLevelObserved,T251234-daily,58.8,59.6,61.4,63.8,47.9,2021-05-06
164,2021-05-08T00:00:07.903Z,/sonometros,NoiseLevelObserved,T251234-daily,59.8,61.2,61.7,63.4,46.4,2021-05-07
165,2021-05-09T00:00:24.585Z,/sonometros,NoiseLevelObserved,T251234-daily,62.6,64.4,63.8,63.9,46.3,2021-05-08
166,2021-05-10T00:00:13.144Z,/sonometros,NoiseLevelObserved,T251234-daily,59.9,61.8,61.1,58.3,48.5,2021-05-09
167,2021-05-11T00:00:27.766Z,/sonometros,NoiseLevelObserved,T251234-daily,60.1,61.6,62.7,62.2,52.5,2021-05-10
168,2021-05-12T00:00:14.526Z,/sonometros,NoiseLevelObserved,T251234-daily,57.9,59.1,60.2,61.4,48.2,2021-05-11
169,2021-05-13T00:00:17.412Z,/sonometros,NoiseLevelObserved,T251234-daily,57.0,57.7,60.1,62.0,49.1,2021-05-12
170,2021-05-14T00:00:19.755Z,/sonometros,NoiseLevelObserved,T251234-daily,58.9,59.0,62.6,65.0,52.1,2021-05-13
171,2021-05-15T00:00:21.95Z,/sonometros,NoiseLevelObserved,T251234-daily,60.8,60.7,65.4,66.5,56.9,2021-05-14
172,2021-05-16T00:00:22.468Z,/sonometros,NoiseLevelObserved,T251234-daily,64.6,65.6,67.8,68.4,58.1,2021-05-15
173,2021-05-17T00:00:24.124Z,/sonometros,NoiseLevelObserved,T251234-daily,56.7,58.3,58.8,58.2,47.6,2021-05-16
174,2021-05-18T00:00:26.154Z,/sonometros,NoiseLevelObserved,T251234-daily,57.8,59.7,59.1,57.2,46.2,2021-05-17
175,2021-05-19T00:00:28.918Z,/sonometros,NoiseLevelObserved,T251234-daily,56.7,58.0,59.2,59.1,48.9,2021-05-18
176,2021-05-20T00:00:30.757Z,/sonometros,NoiseLevelObserved,T251234-daily,57.7,59.0,60.3,60.8,49.3,2021-05-19
177,2021-05-21T00:01:31.833Z,/sonometros,NoiseLevelObserved,T251234-daily,60.6,60.7,64.4,66.5,54.3,2021-05-20
178,2021-05-22T00:00:34.115Z,/sonometros,NoiseLevelObserved,T251234-daily,61.2,60.3,66.2,67.4,58.0,2021-05-21
179,2021-05-23T00:00:36.37Z,/sonometros,NoiseLevelObserved,T251234-daily,64.5,65.2,67.9,69.2,57.9,2021-05-22
180,2021-05-24T00:00:37.744Z,/sonometros,NoiseLevelObserved,T251234-daily,56.8,58.5,59.1,56.1,49.4,2021-05-23
181,2021-05-25T00:00:39.446Z,/sonometros,NoiseLevelObserved,T251234-daily,58.4,59.8,60.6,60.6,49.5,2021-05-24
182,2021-05-26T00:00:40.884Z,/sonometros,NoiseLevelObserved,T251234-daily,59.3,61.2,60.8,57.9,49.3,2021-05-25
183,2021-05-27T00:00:43.209Z,/sonometros,NoiseLevelObserved,T251234-daily,57.3,58.4,60.6,59.7,51.8,2021-05-26
184,2021-05-28T00:00:45.621Z,/sonometros,NoiseLevelObserved,T251234-daily,58.4,59.4,62.0,61.2,53.4,2021-05-27
185,2021-05-29T00:00:48.75Z,/sonometros,NoiseLevelObserved,T251234-daily,66.7,61.9,71.7,76.2,59.4,2021-05-28
186,2021-05-30T00:00:49.413Z,/sonometros,NoiseLevelObserved,T251234-daily,65.1,65.1,69.7,70.4,61.3,2021-05-29
187,2021-05-31T00:00:51.17Z,/sonometros,NoiseLevelObserved,T251234-daily,58.7,58.8,64.3,61.0,57.6,2021-05-30
188,2021-06-01T00:00:52.768Z,/sonometros,NoiseLevelObserved,T251234-daily,57.7,59.5,59.5,56.2,49.1,2021-05-31
189,2021-06-02T00:00:55.531Z,/sonometros,NoiseLevelObserved,T251234-daily,57.4,59.0,60.0,58.0,50.4,2021-06-01
190,2021-06-03T00:00:58.728Z,/sonometros,NoiseLevelObserved,T251234-daily,57.0,57.0,60.8,63.1,50.6,2021-06-02
191,2021-06-04T00:00:58.893Z,/sonometros,NoiseLevelObserved,T251234-daily,57.8,58.6,61.9,61.2,53.6,2021-06-03
192,2021-06-05T00:00:02.450Z,/sonometros,NoiseLevelObserved,T251234-daily,62.2,61.0,67.6,68.8,59.5,2021-06-04
193,2021-06-06T00:00:20.309Z,/sonometros,NoiseLevelObserved,T251234-daily,66.1,66.9,70.2,68.9,62.3,2021-06-05
194,2021-06-07T00:00:21.431Z,/sonometros,NoiseLevelObserved,T251234-daily,59.5,59.7,65.6,58.4,59.4,2021-06-06
195,2021-06-08T00:00:09.521Z,/sonometros,NoiseLevelObserved,T251234-daily,58.4,60.4,60.4,55.6,50.4,2021-06-07
196,2021-06-09T00:00:19.419Z,/sonometros,NoiseLevelObserved,T251234-daily,58.8,60.6,60.8,58.4,50.1,2021-06-08
197,2021-06-10T00:00:44.740Z,/sonometros,NoiseLevelObserved,T251234-daily,58.5,58.8,62.1,63.7,52.4,2021-06-09
198,2021-06-11T00:00:18.119Z,/sonometros,NoiseLevelObserved,T251234-daily,57.4,57.8,61.8,61.7,53.7,2021-06-10
199,2021-06-12T00:00:22.684Z,/sonometros,NoiseLevelObserved,T251234-daily,61.4,59.1,68.0,67.3,61.2,2021-06-11
200,2021-06-13T00:00:19.470Z,/sonometros,NoiseLevelObserved,T251234-daily,63.4,59.9,71.0,68.6,64.8,2021-06-12
201,2021-06-14T00:00:26.623Z,/sonometros,NoiseLevelObserved,T251234-daily,59.7,56.6,68.2,57.3,62.7,2021-06-13
202,2021-06-15T00:00:26.603Z,/sonometros,NoiseLevelObserved,T251234-daily,57.7,59.2,60.2,59.3,50.0,2021-06-14
203,2021-06-16T00:00:23.362Z,/sonometros,NoiseLevelObserved,T251234-daily,56.5,57.5,59.6,60.3,49.6,2021-06-15
204,2021-06-17T00:00:25.316Z,/sonometros,NoiseLevelObserved,T251234-daily,57.2,57.2,61.6,62.7,52.9,2021-06-16
205,2021-06-18T00:00:28.537Z,/sonometros,NoiseLevelObserved,T251234-daily,59.1,59.2,63.8,64.0,55.8,2021-06-17
206,2021-06-19T00:00:31.33Z,/sonometros,NoiseLevelObserved,T251234-daily,61.9,60.0,67.8,68.7,60.2,2021-06-18
207,2021-06-20T00:00:31.386Z,/sonometros,NoiseLevelObserved,T251234-daily,63.5,62.2,69.9,68.3,63.2,2021-06-19
208,2021-06-21T00:00:33.623Z,/sonometros,NoiseLevelObserved,T251234-daily,59.1,57.1,67.2,56.6,61.6,2021-06-20
209,2021-08-25T00:00:03.613Z,/sonometros,NoiseLevelObserved,T251234-daily,57.5,55.8,64.0,62.6,57.4,2021-08-24
210,2021-08-26T00:00:10.355Z,/sonometros,NoiseLevelObserved,T251234-daily,57.4,56.9,63.4,61.4,56.6,2021-08-25
211,2021-08-27T00:00:06.447Z,/sonometros,NoiseLevelObserved,T251234-daily,57.7,58.2,62.1,61.3,54.3,2021-08-26
212,2021-08-28T00:00:07.577Z,/sonometros,NoiseLevelObserved,T251234-daily,58.9,58.6,64.3,63.5,57.0,2021-08-27
213,2021-08-29T00:00:10.481Z,/sonometros,NoiseLevelObserved,T251234-daily,60.1,59.4,66.1,64.4,59.3,2021-08-28
214,2021-08-30T00:00:10.394Z,/sonometros,NoiseLevelObserved,T251234-daily,58.3,57.8,63.8,63.4,56.4,2021-08-29
215,2021-08-31T00:00:15.25Z,/sonometros,NoiseLevelObserved,T251234-daily,64.2,65.0,67.6,68.6,57.9,2021-08-30
216,2021-09-01T00:00:16.621Z,/sonometros,NoiseLevelObserved,T251234-daily,66.9,67.3,71.2,71.4,62.8,2021-08-31
217,2021-09-02T00:00:17.781Z,/sonometros,NoiseLevelObserved,T251234-daily,71.3,70.7,76.4,77.3,68.3,2021-09-01
218,2021-09-03T00:00:20.192Z,/sonometros,NoiseLevelObserved,T251234-daily,70.7,69.0,76.6,77.3,69.0,2021-09-02